Location: Shandelee
(41.8790°N, 74.8713°W)
Time: 13:02:27
(UTC+00:00)

Cosmos 2219 - Pass Details

Date: 29 October 2020
Orbit: 832 x 862 km, 71.1° (Epoch: 01 December)

Event Time Altitude Azimuth Distance (km) Brightness Sun altitude
Rises 23:10:29 0° 333° (NNW) 3,446 6.7 -14.2°
Reaches altitude 10° 23:12:58 10° 330° (NNW) 2,506 6.0 -14.7°
Maximum altitude 23:18:40 65° 250° (WSW) 946 3.7 -15.7°
Drops below altitude 10° 23:24:19 10° 170° (S) 2,488 5.6 -16.8°
Sets 23:26:47 0° 167° (SSE) 3,418 6.3 -17.3°
